Grand Prairie, TX

3:36 PM CDT on May 29, 2017 (GMT -0500)
Grand Prairie Municipal

Weather History for KGPM - August, 2013

Change the Weather History Date:

Saturday, August 24, 2013

  Actual Average (KRBD) Record (KRBD)
Temperature  
Mean Temperature 88 °F -  
Max Temperature 98 °F 91 °F 107 °F (2011)
Min Temperature 78 °F 72 °F 69 °F (1997)
Cooling Degree Days 23    
Growing Degree Days 38 (Base 50)    
Moisture  
Dew Point 64 °F    
Average Humidity 50    
Maximum Humidity 69    
Minimum Humidity 25    
Precipitation  
Precipitation 0.00 in - - ()
Sea Level Pressure  
Sea Level Pressure 30.03 in    
Wind  
Wind Speed 4 mph (East)    
Max Wind Speed 12 mph    
Max Gust Speed 17 mph    
Visibility 10 miles    
Events      
Averages and records for this station are not official NWS values.
T = Trace of Precipitation, MM = Missing Value Source: NWS Daily Summary

Daily Weather History Graph

Daily Weather History Graph

Search for Another Location

Airport or City:

Trip Planner

Search our weather history database for the weather conditions in past years. The results will help you decide how hot, cold, wet, or windy it might be!

Date:

Astronomy

Aug. 24, 2013 Rise Set
Actual Time 6:57 AM CDT 8:02 PM CDT
Civil Twilight 6:32 AM CDT 8:27 PM CDT
Nautical Twilight 6:02 AM CDT 8:58 PM CDT
Astronomical Twilight 5:30 AM CDT 9:29 PM CDT
Moon 10:15 PM CDT (8/24) 10:42 AM CDT (8/24)
Length of Visible Light 13h 55m
Length of Day
13h 04m
Waning Gibbous, 84% of the Moon is Illuminated
Aug 24
Waning Gibbous
Aug 28
Last Quarter
Sep 5
New
Sep 12
First Quarter
Sep 19
Full

Hourly Weather History & Observations

Time (CDT) Temp. Heat Index Dew Point Humidity Pressure Visibility Wind Dir Wind Speed Gust Speed Precip Events Conditions
12:15 AM 86.0 °F 86.6 °F 62.6 °F 45% 30.00 in 10.0 mi NE 4.6 mph - N/A   Clear
12:35 AM 86.0 °F 87.3 °F 64.4 °F 48% 30.01 in 10.0 mi NE 4.6 mph - N/A   Clear
12:55 AM 84.2 °F 85.6 °F 64.4 °F 51% 30.01 in 10.0 mi ENE 3.5 mph - N/A   Clear
1:15 AM 84.2 °F 85.6 °F 64.4 °F 51% 30.01 in 10.0 mi East 4.6 mph - N/A   Clear
1:35 AM 84.2 °F 85.6 °F 64.4 °F 51% 30.01 in 10.0 mi ENE 3.5 mph - N/A   Clear
1:55 AM 82.4 °F 83.9 °F 64.4 °F 54% 30.00 in 10.0 mi ENE 3.5 mph - N/A   Clear
2:15 AM 82.4 °F 83.9 °F 64.4 °F 54% 30.00 in 10.0 mi East 3.5 mph - N/A   Clear
2:35 AM 80.6 °F 82.3 °F 64.4 °F 58% 30.00 in 10.0 mi East 4.6 mph - N/A   Clear
2:55 AM 82.4 °F 83.9 °F 64.4 °F 54% 30.01 in 10.0 mi ESE 4.6 mph - N/A   Clear
3:15 AM 80.6 °F 82.3 °F 64.4 °F 58% 30.01 in 10.0 mi SSE 3.5 mph - N/A   Clear
3:35 AM 80.6 °F 82.3 °F 64.4 °F 58% 30.01 in 10.0 mi Calm Calm - N/A   Clear
3:55 AM 80.6 °F 82.3 °F 64.4 °F 58% 30.01 in 10.0 mi ENE 3.5 mph - N/A   Clear
4:15 AM 80.6 °F 82.3 °F 64.4 °F 58% 30.01 in 10.0 mi Calm Calm - N/A   Clear
4:35 AM 80.6 °F 82.3 °F 64.4 °F 58% 30.02 in 10.0 mi Calm Calm - N/A   Clear
4:55 AM 78.8 °F - 64.4 °F 61% 30.02 in 10.0 mi Calm Calm - N/A   Clear
5:15 AM 78.8 °F - 64.4 °F 61% 30.02 in 10.0 mi Calm Calm - N/A   Clear
5:35 AM 78.8 °F - 64.4 °F 61% 30.02 in 10.0 mi ESE 3.5 mph - N/A   Clear
5:55 AM 78.8 °F - 64.4 °F 61% 30.03 in 10.0 mi ESE 3.5 mph - N/A   Clear
6:15 AM 78.8 °F - 64.4 °F 61% 30.03 in 10.0 mi SE 3.5 mph - N/A   Clear
6:35 AM 78.8 °F - 64.4 °F 61% 30.03 in 10.0 mi South 3.5 mph - N/A   Clear
6:50 AM 78.8 °F - 66.2 °F 65% 30.04 in 10.0 mi Calm Calm - N/A   Clear
6:55 AM 78.8 °F - 66.2 °F 65% 30.04 in 10.0 mi SSE 3.5 mph - N/A   Clear
7:50 AM 78.8 °F - 68.0 °F 69% 30.06 in 10.0 mi Calm Calm - N/A   Clear
8:50 AM 82.4 °F 85.4 °F 68.0 °F 62% 30.07 in 10.0 mi Calm Calm - N/A   Clear
9:50 AM 86.0 °F 89.4 °F 68.0 °F 55% 30.08 in 10.0 mi Calm Calm - N/A   Clear
10:50 AM 89.6 °F 93.4 °F 68.0 °F 49% 30.09 in 10.0 mi Calm Calm - N/A   Clear
11:59 AM 93.2 °F 96.2 °F 66.2 °F 41% 30.08 in 10.0 mi ENE 8.1 mph - N/A   Clear
12:50 PM 95.0 °F 96.0 °F 62.6 °F 34% 30.06 in 10.0 mi East 10.4 mph - N/A   Clear
1:50 PM 96.8 °F 98.0 °F 62.6 °F 32% 30.05 in 10.0 mi ENE 10.4 mph 16.1 mph N/A   Clear
2:50 PM 96.8 °F 97.1 °F 60.8 °F 30% 30.03 in 10.0 mi ENE 9.2 mph 17.3 mph N/A   Clear
3:56 PM 98.6 °F 98.5 °F 59.0 °F 27% 30.00 in 10.0 mi NE 6.9 mph - N/A   Clear
4:50 PM 98.6 °F 97.6 °F 57.2 °F 25% 30.00 in 10.0 mi ENE 9.2 mph - N/A   Clear
5:50 PM 98.6 °F 98.5 °F 59.0 °F 27% 29.99 in 10.0 mi ENE 10.4 mph - N/A   Clear
6:49 PM 96.8 °F 96.2 °F 59.0 °F 28% 29.98 in 10.0 mi East 11.5 mph - N/A   Clear
7:50 PM 93.2 °F 94.1 °F 62.6 °F 36% 29.99 in 10.0 mi East 9.2 mph 17.3 mph N/A   Clear
9:15 PM 87.8 °F 88.5 °F 62.6 °F 43% 30.03 in 10.0 mi ESE 3.5 mph - N/A   Clear
9:35 PM 87.8 °F 88.5 °F 62.6 °F 43% 30.04 in 10.0 mi East 4.6 mph - N/A   Clear
9:55 PM 87.8 °F 89.4 °F 64.4 °F 46% 30.04 in 10.0 mi Calm Calm - N/A   Clear
10:15 PM 87.8 °F 89.4 °F 64.4 °F 46% 30.05 in 10.0 mi Calm Calm - N/A   Clear
10:35 PM 87.8 °F 89.4 °F 64.4 °F 46% 30.06 in 10.0 mi SE 4.6 mph - N/A   Clear
10:55 PM 86.0 °F 87.3 °F 64.4 °F 48% 30.06 in 10.0 mi SE 3.5 mph - N/A   Clear
11:15 PM 86.0 °F 87.3 °F 64.4 °F 48% 30.07 in 10.0 mi SE 3.5 mph - N/A   Clear
11:35 PM 84.2 °F 85.6 °F 64.4 °F 51% 30.07 in 10.0 mi SE 3.5 mph - N/A   Clear
11:55 PM 84.2 °F 85.6 °F 64.4 °F 51% 30.07 in 10.0 mi Calm Calm - N/A   Clear